Effective Sunday, March 17, 2024, the National Weather Service National Data Buoy Center will discontinue its Dial-A-Buoy Interactive Voice Response system. For more information, see Service Change Notice 24-06 (PDF).

Station OLCN6 - Olcott Harbor, NY Image indicating link to RSS feed of recent meteorological observations for station OLCN6


Conditions at OLCN6 as of
(7:00 pm EST on 02/29/2024)
0000 GMT on 03/01/2024:
     

Click on the graph icon in the table below to see a time series plot of the last five days of that observation.

5-day plot - Wind Direction Wind Direction (WDIR): W ( 280 deg true )
5-day plot - Wind Speed Wind Speed (WSPD): 24.1 kts
5-day plot - Wind Gust Wind Gust (GST): 28.9 kts
5-day plot - Atmospheric Pressure Atmospheric Pressure (PRES):30.43 in
5-day plot - Pressure Tendency Pressure Tendency (PTDY):+0.04 in ( Rising )
5-day plot - Wind Speed at 10 Meters Wind Speed at 10 meters (WSPD10M): 23.3 kts
5-day plot - Wind Speed at 20 Meters Wind Speed at 20 meters (WSPD20M): 25.3 kts
5-day plot -  Wind Speed, Wind Gust and Atmospheric Pressure Combined plot of Wind Speed, Gust, and Air Pressure
Previous observations
TIME
(EST)
5-day plot - Wind Direction
WDIR
 
5-day plot - Wind Speed
WSPD
kts
5-day plot - Wind Gust
GST
kts
5-day plot - Wave Height
WVHT
ft
5-day plot - Dominant Wave Period
DPD
sec
5-day plot - Average Wave Period
APD
sec
5-day plot - Mean Wave Direction
MWD
 
5-day plot - Atmospheric Pressure
PRES
in
5-day plot - Pressure Tendency
PTDY
in
5-day plot - Air Temperature
ATMP
°F
5-day plot - Water Temperature
WTMP
°F
5-day plot - Dew Point
DEWP
°F
5-day plot - Salinity
SAL
psu
5-day plot - Visibility
VIS
nmi
5-day plot - Tide (above MLLW)
TIDE
ft
2024-02-29 06:50 pm W 24.1 29.9----30.43-------
2024-02-29 06:40 pm W 26.0 31.1----30.42-------
2024-02-29 06:00 pm W 24.1 28.9----30.41+0.03------
2024-02-29 05:50 pm W 27.0 33.0----30.41-------
2024-02-29 05:40 pm W 26.0 33.0----30.41-------
2024-02-29 05:30 pm W 25.1 28.9----30.40-------
2024-02-29 05:20 pm W 27.0 32.1----30.41-------
2024-02-29 05:10 pm W 24.1 32.1----30.41-------
2024-02-29 05:00 pm W 26.0 28.9----30.40+0.02------
2024-02-29 04:50 pm W 27.0 29.9----30.40-------
2024-02-29 04:40 pm W 25.1 31.1----30.40-------
2024-02-29 04:30 pm W 22.9 31.1----30.40-------
2024-02-29 04:20 pm W 28.0 32.1----30.39-------
2024-02-29 04:10 pm W 26.0 31.1----30.39-------
2024-02-29 04:00 pm W 21.0 29.9----30.39+0.02------
2024-02-29 03:50 pm W 27.0 29.9----30.38-------
2024-02-29 03:40 pm W 26.0 33.0----30.38-------
2024-02-29 03:30 pm W 22.9 32.1----30.38-------
2024-02-29 03:20 pm W 26.0 33.0----30.37-------
2024-02-29 03:10 pm W 27.0 36.9----30.37-------
2024-02-29 03:00 pm W 25.1 35.9----30.38+0.01------
2024-02-29 02:50 pm W 22.9 29.9----30.37-------
2024-02-29 02:40 pm W 22.0 32.1----30.38-------
2024-02-29 02:30 pm W 25.1 35.9----30.38-------
2024-02-29 02:20 pm W 22.9 33.0----30.38-------
2024-02-29 02:10 pm W 22.0 31.1----30.37-------
2024-02-29 02:00 pm W 22.0 33.0----30.38+0.02------
2024-02-29 01:50 pm W 29.9 34.0----30.36-------
2024-02-29 01:40 pm W 24.1 35.0----30.37-------
2024-02-29 01:30 pm W 22.9 33.0----30.36-------
2024-02-29 01:20 pm W 15.0 29.9----30.37-------
2024-02-29 01:10 pm W 25.1 35.0----30.36-------
2024-02-29 01:00 pm W 19.0 35.0----30.37+0.03------
2024-02-29 12:50 pm W 22.9 32.1----30.36-------
2024-02-29 12:40 pm W 26.0 34.0----30.35-------
2024-02-29 12:30 pm W 25.1 34.0----30.36-------
2024-02-29 12:20 pm W 28.0 31.1----30.36-------
2024-02-29 12:10 pm W 26.0 31.1----30.37-------
2024-02-29 12:00 pm W 22.0 35.9----30.37+0.05------
2024-02-29 11:50 am W 28.0 31.1----30.36-------
2024-02-29 11:40 am W 22.9 29.9----30.36-------
2024-02-29 11:30 amWNW 22.0 31.1----30.36-------
2024-02-29 11:20 am W 24.1 32.1----30.36-------
2024-02-29 11:10 am W 25.1 32.1----30.36-------
2024-02-29 11:00 amWNW 22.0 34.0----30.36+0.09------
2024-02-29 10:50 amWNW 22.0 33.0----30.34-------
2024-02-29 10:40 amWNW 28.9 34.0----30.34-------
2024-02-29 10:30 amWNW 29.9 34.0----30.35-------
2024-02-29 10:20 amWNW 28.9 34.0----30.35-------
2024-02-29 10:10 amWNW 28.0 35.9----30.33-------
2024-02-29 10:00 am W 27.0 35.9----30.34+0.11------
2024-02-29 09:50 amWNW 28.9 38.1----30.33-------
2024-02-29 09:40 amWNW 29.9 35.0----30.34-------
2024-02-29 09:30 am W 28.9 35.9----30.33-------
2024-02-29 09:20 am W 28.9 35.9----30.33-------
2024-02-29 09:10 am W 28.9 36.9----30.32-------
2024-02-29 09:00 amWNW 28.9 38.1----30.32+0.12------
2024-02-29 08:50 amWNW 34.0 36.9----30.30-------
2024-02-29 08:40 am W 27.0 38.1----30.29-------
2024-02-29 08:30 amWNW 29.9 35.0----30.29-------
2024-02-29 08:20 amWNW 32.1 41.0----30.28-------
2024-02-29 08:10 am W 34.0 42.0----30.28-------
2024-02-29 08:00 amWNW 34.0 42.0----30.27+0.09------
2024-02-29 07:50 amWNW 35.0 41.0----30.25-------
2024-02-29 07:40 am W 34.0 40.0----30.25-------
2024-02-29 07:30 amWNW 31.1 35.9----30.25-------
2024-02-29 07:20 amWNW 32.1 38.1----30.24-------
2024-02-29 07:10 amWNW 29.9 36.9----30.24-------
2024-02-29 07:00 amWNW 29.9 34.0----30.23+0.09------
2024-02-29 06:50 am W 31.1 35.9----30.22-------
2024-02-29 06:40 amWNW 25.1 33.0----30.24-------
2024-02-29 06:30 amWNW 28.0 35.0----30.22-------
2024-02-29 06:20 amWNW 28.9 34.0----30.21-------
2024-02-29 06:10 amWNW 27.0 33.0----30.22-------
2024-02-29 06:00 amWNW 27.0 34.0----30.20+0.08------
2024-02-29 05:50 amWNW 28.9 35.9----30.20-------
2024-02-29 05:40 amWNW 28.9 34.0----30.19-------
2024-02-29 05:30 amWNW 28.0 38.1----30.20-------
2024-02-29 05:20 amWNW 28.0 33.0----30.19-------
2024-02-29 05:10 amWNW 28.0 33.0----30.16-------
2024-02-29 05:00 am W 28.9 35.0----30.18+0.07------
2024-02-29 04:50 amWNW 28.0 33.0----30.17-------
2024-02-29 04:40 am W 29.9 35.9----30.15-------
2024-02-29 04:30 amWNW 28.9 33.0----30.15-------
2024-02-29 04:20 amWNW 27.0 32.1----30.16-------
2024-02-29 04:10 amWNW 28.0 36.9----30.15-------
2024-02-29 04:00 am W 28.9 35.0----30.14+0.06------
2024-02-29 03:50 am W 28.9 35.9----30.14-------
2024-02-29 03:40 am W 28.0 35.9----30.14-------
2024-02-29 03:30 am W 28.0 36.9----30.13-------
2024-02-29 03:20 amWNW 31.1 39.0----30.12-------
2024-02-29 03:10 am W 28.9 40.0----30.12-------
2024-02-29 03:00 am W 29.9 38.1----30.12+0.06------
2024-02-29 02:50 amWNW 28.0 36.9----30.13-------
2024-02-29 02:40 am W 33.0 39.0----30.12-------
2024-02-29 02:30 am W 32.1 40.0----30.12-------
2024-02-29 02:20 am W 33.0 42.0----30.11-------
2024-02-29 02:10 amWNW 31.1 38.1----30.11-------
2024-02-29 02:00 am W 31.1 38.1----30.11+0.08------
2024-02-29 01:50 am W 34.0 39.0----30.11-------
2024-02-29 01:40 amWNW 31.1 38.1----30.12-------
2024-02-29 01:30 amWNW 32.1 38.1----30.11-------
2024-02-29 01:20 am W 31.1 38.1----30.12-------
2024-02-29 01:10 amWNW 33.0 38.1----30.10-------
2024-02-29 01:00 am W 34.0 39.0----30.08+0.09------
2024-02-29 12:50 am W 34.0 40.0----30.10-------
2024-02-29 12:40 am W 34.0 41.0----30.08-------
2024-02-29 12:30 am W 32.1 41.0----30.09-------
2024-02-29 12:20 am W 34.0 38.1----30.08-------
2024-02-29 12:10 am W 32.1 40.0----30.09-------
2024-02-29 12:00 amWNW 33.0 39.0----30.06-------
2024-02-28 11:50 pmWNW 31.1 42.0----30.05-------
2024-02-28 11:40 pm W 34.0 39.0----30.05-------
2024-02-28 11:30 pm W 32.1 38.1----30.05-------
2024-02-28 11:20 pm W 29.9 39.0----30.06-------
2024-02-28 11:10 pm W 33.0 38.1----30.05-------
2024-02-28 11:00 pmWNW 35.0 39.0----30.03+0.14------
2024-02-28 10:50 pmWNW 32.1 39.0----30.05-------
2024-02-28 10:40 pm W 32.1 38.1----30.03-------
2024-02-28 10:30 pmWNW 36.9 42.9----30.01-------
2024-02-28 10:20 pm W 35.9 44.1----30.01-------
2024-02-28 10:10 pmWNW 34.0 45.1----29.98-------
2024-02-28 10:00 pm W 35.0 42.0----29.99+0.17------
2024-02-28 09:50 pm W 36.9 42.9----29.99-------
2024-02-28 09:40 pm W 35.0 45.1----29.98-------
2024-02-28 09:30 pmWNW 35.9 46.0----29.97-------
2024-02-28 09:20 pm W 35.0 42.0----29.99-------
2024-02-28 09:10 pmWNW 33.0 47.0----29.98-------
2024-02-28 08:00 pm W 36.9 45.1----29.89+0.24------
2024-02-28 07:50 pm W 40.0 46.0----29.90-------
2024-02-28 07:40 pm W 36.9 49.0----29.88-------
2024-02-28 07:30 pm W 40.0 49.9----29.86-------
2024-02-28 07:20 pm W 39.0 47.0----29.83-------
2024-02-28 07:10 pm W 38.1 52.1----29.84-------
2024-02-28 07:00 pmWNW 39.0 46.0----29.82+0.29------
2024-02-28 06:50 pm W 41.0 53.0----29.80-------